Regional Weather Roundup
Issued by NWS Northern Indiana

Home | Current Version | Previous Version | Graphics & Text | Print | Product List | Glossary On
Versions: 1 2 3 4 5 6 7 8 9 10 11 12 13 14 15 16 17 18 19 20 21 22 23 24 25 26 27 28 29 30 31 32 33 34 35 36 37 38 39 40 41 42 43 44 45 46 47 48 49 50
000
ASUS43 KIWX 031000
RWRIWX

KIWX WEATHER ROUNDUP
NATIONAL WEATHER SERVICE NORTHERN INDIANA
500 AM EST TUE MAR 03 2015

NOTE: "FAIR" INDICATES FEW OR NO CLOUDS BELOW 12,000 FEET WITH NO
SIGNIFICANT WEATHER AND/OR OBSTRUCTIONS TO VISIBILITY.

* THESE STATIONS ARE NOT UNDER NWS QUALITY CONTROL. THEY ALSO MAY NOT
  REPORT WEATHER SUCH AS PRECIPITATION OR FOG.

INZ001>027-031100-
NORTHERN INDIANA

CITY           SKY/WX    TMP DP  RH WIND       PRES   REMARKS
SOUTH BEND     FLURRIES  26  15  63 SE14      30.09F WCI  14
GOSHEN         CLOUDY    24  16  71 SE9       30.11F WCI  14
MONTICELLO*    MIX PCPN  26  19  75 SE5       30.12F WCI  20
ANGOLA*        MOCLDY    21  16  79 SE6       30.16S WCI  14
FORT WAYNE     CLOUDY    23  15  71 SE7       30.17F WCI  15
PERU/GRISSOM   MIX PCPN  25  19  77 SE12      30.10F WCI  14

$$
INZ028>050-031100-
CENTRAL INDIANA

CITY           SKY/WX    TMP DP  RH WIND       PRES   REMARKS
LAFAYETTE      MIX PCPN  26  20  77 E5        30.13F WCI  20
KOKOMO*        CLOUDY    25  18  74 SE10      30.13F WCI  15
MUNCIE*        MIX PCPN  26  16  65 SE13      30.10F WCI  15
INDIANAPOLIS   FRZ RAIN  27  18  69 E10       30.07F WCI  17

$$
MIZ043>046-050>051-056>058-064>065-071>073-077>080-031100-
SOUTHWEST LOWER MICHIGAN

CITY           SKY/WX    TMP DP  RH WIND       PRES   REMARKS
BATTLE CREEK   CLOUDY    25  14  63 SE6       30.13F WCI  18
BENTON HARBOR  CLOUDY    25  15  66 SE9       30.10F WCI  15
COLDWATER*     CLOUDY    24  14  66 SE9       30.14F WCI  14
HILLSDALE*     CLOUDY    22  14  70 SE6       30.15F WCI  15
HOLLAND        CLOUDY    26  16  65 E9        30.12F WCI  17
GRAND RAPIDS   CLOUDY    25  15  66 SE7       30.13F WCI  17
KALAMAZOO      CLOUDY    25  14  63 SE7       30.12F WCI  17
STURGIS*       CLOUDY    25  16  68 SE9       30.13F WCI  15
THREE RIVERS*  CLOUDY    25  14  62 SE7       30.13F WCI  18

$$
OHZ001>008-015>018-024>025-031100-
NORTHWEST OHIO

CITY           SKY/WX    TMP DP  RH WIND       PRES   REMARKS
DEFIANCE       CLOUDY    23  14  68 E6        30.20F WCI  16
FINDLAY        CLOUDY    22  13  68 E9        30.19F WCI  12
TOLEDO EXPRESS CLOUDY    21  14  74 SE5       30.21F WCI  15
TOLEDO METCALF CLOUDY    22  14  71 E8        30.22F WCI  12
LIMA           CLOUDY    23  14  68 SE13      30.17F WCI  11

$$
AND FOR LAKE MICHIGAN COASTAL AND OPEN LAKE BUOY OBSERVATIONS

STATION/POSITION TEMP    WIND        PRES    VSBY  WAVE
                 AIR SEA DIR/SP/G                  HT/PER
                 (F)     (DEG/KT/KT) (MB)    (MI)  (FT/S)
CALUMET HARBOR    27     170/ 10/ 15 1017.6
MICHIGAN CITY     26     120/  9/ 12   N/A
SAINT JOSEPH      26     110/  2/  7 1020.0F

$$
&&


USA.gov is the U.S. government's official web portal to all federal, state and local government web resources and services.